Location: Morisset
(33.1080°S, 151.4871°E)
Time: 08:40:37
(UTC+00:00)

Cosmos 1536 Rocket - Pass Details

Date: 29 October 2020
Orbit: 604 x 633 km, 82.5° (Epoch: 27 November)

Event Time Altitude Azimuth Distance (km) Brightness Sun altitude
Rises 16:31:50 0° 183° (S) 2,918 7.5 -27.4°
Reaches altitude 10° 16:34:05 10° 180° (S) 2,009 6.6 -27.0°
Enters shadow 16:38:28 66° 103° (ESE) 686 3.8 -26.3°
